Location: Gammelsbach
(49.5261°N, 8.9630°E)
Time: 15:43:04
(UTC+00:00)

Cosmos 2263 Rocket - Pass Details

Date: 17 June 2025
Orbit: 822 x 848 km, 71.0° (Epoch: 20 July)

Event Time Altitude Azimuth Distance (km) Brightness Sun altitude
Rises 22:34:06 0° 247° (WSW) 3,398 5.2 -16.2°
Reaches altitude 10° 22:36:57 10° 260° (W) 2,469 4.6 -16.3°
Maximum altitude 22:41:40 26° 317° (NW) 1,604 4.3 -16.4°
Drops below altitude 10° 22:46:25 10° 13° (NNE) 2,484 5.7 -16.6°
Sets 22:49:18 0° 26° (NNE) 3,423 6.3 -16.6°
